Regional Weather Roundup
Issued by NWS

Home | Current Version | Previous Version | Graphics & Text | Print | Product List | Glossary Off
Versions: 1 2 3 4 5 6 7 8 9 10 11 12 13 14 15 16 17 18 19 20 21 22 23 24 25 26 27 28 29 30 31 32 33 34 35 36 37 38 39 40 41 42 43 44 45 46 47 48 49 50

000
ASUS43 KLOT 241908
RWRIL

ILLINOIS REGIONAL WEATHER ROUNDUP
NATIONAL WEATHER SERVICE CHICAGO/ROMEOVILLE IL
200 PM CDT TUE APR 24 2018

NOTE: "FAIR" INDICATES FEW OR NO CLOUDS BELOW 12,000 FEET WITH NO
SIGNIFICANT WEATHER AND/OR OBSTRUCTIONS TO VISIBILITY.

* THESE STATIONS ARE NOT UNDER NWS QUALITY CONTROL. THEY ALSO MAY NOT
  REPORT WEATHER SUCH AS PRECIPITATION OR FOG.

ILZ001-002-007-009-015-016-024-242000-
NORTHWEST ILLINOIS

CITY           SKY/WX    TMP DP  RH WIND       PRES   REMARKS
MOLINE         FAIR      74  27  17 NW8       30.01F
STERLING*      FAIR      73  36  25 N8        30.01F
SAVANNA*       FAIR      73  26  17 NW8       30.01F
$$

ILZ003-004-008-010-011-017-018-242000-
NORTH CENTRAL ILLINOIS

CITY           SKY/WX    TMP DP  RH WIND       PRES   REMARKS
ROCKFORD       FAIR      72  34  24 NE9G18    30.01F
FREEPORT*      FAIR      70  30  23 NE8       30.03F
ROCHELLE*      FAIR      70  37  29 NE10      30.00F
DE KALB*       FAIR      68  47  46 NE14      30.01F
PERU*          FAIR      72  41  32 NE14G20   29.99F
$$

ILZ005-006-012>014-019>023-242000-
NORTHEAST ILLINOIS

CITY           SKY/WX    TMP DP  RH WIND       PRES   REMARKS
CHICAGO-OHARE  FAIR      62  47  57 NE8       30.01F
CHICAGO-MIDWAY PTSUNNY   63  49  60 N10       30.01F
AURORA         FAIR      68  49  50 NE12      29.99F
LANSING*       FAIR      58  51  77 N10       30.01S
JOLIET*        CLOUDY    66  51  58 E8        29.99F
WAUKEGAN       FAIR      58  47  66 E10       30.02F
DUPAGE AIRPORT FAIR      66  50  56 NE9       29.99F
KANKAKEE*      CLOUDY    62  50  65 NE9       30.00S
WHEELING       FAIR      61  48  62 E9        30.04S
MORRIS*        PTSUNNY   68  49  50 NE5       29.98F
ROMEOVILLE*    PTSUNNY   65  49  56 NE3       30.00F
NORTHERLY ISL    N/A     53  45  74 N13         N/A
$$

LMZ740>746-242000-
SOUTHERN LAKE MICHIGAN

STATION/POSITION SKY/WX   TEMP    WIND        PRES    VSBY  WAVE
                          AIR SEA DIR/SP/G                  HT/PER
                          (F)     (DEG/KT/KT) (MB)    (MI)  (FT/S)
HARRISON CRIB              44     360/ 13/ 13   N/A
BURNHAM HARBOR             53     360/ 11/ 12   N/A
CALUMET HARBOR             48     340/ 11/ 16 1016.2F
BURNS HARBOR               43      20/  4/  5 1017.3S
MICHIGAN CITY              44      10/  6/  7   N/A
ST. JOSEPH                 44 42   10/  4/  4 1017.0          1
$$

ILZ025>027-034>036-040-047-049-050-058-095>099-242000-
WEST-CENTRAL ILLINOIS

CITY           SKY/WX    TMP DP  RH WIND       PRES   REMARKS
QUINCY         SUNNY     72  43  35 N15       30.02F
GALESBURG*     FAIR      74  37  26 N10G17    30.02F
MACOMB*        SUNNY     72  37  27 N9G18     30.03F
JACKSONVILLE*  SUNNY     69  48  47 N9G16     30.01F
PITTSFIELD*    MOSUNNY   71  47  43 N10G17    30.03F
$$

ILZ028>032-037-038-041>044-048-051>054-059>061-242000-
CENTRAL ILLINOIS

CITY           SKY/WX    TMP DP  RH WIND       PRES   REMARKS
PONTIAC        PTSUNNY   66  52  60 NE12      30.00F
BLOOMINGTON    CLOUDY    61  52  72 N12       30.01F
DECATUR        PTSUNNY   63  53  70 N12       29.98F
PEORIA         FAIR      71  44  37 NE8G21    29.99F
LACON*         FAIR      70  38  31 N10       29.99F
LINCOLN*       CLOUDY    65  55  70 N10       30.00F
SPRINGFIELD    PTSUNNY   68  53  58 N9G20     30.01F
TAYLORVILLE    CLOUDY    61  53  76 N15       30.00S
$$

ILZ033-039-045-046-055>057-062-063-242000-
EAST-CENTRAL ILLINOIS

CITY           SKY/WX    TMP DP  RH WIND       PRES   REMARKS
CHAMPAIGN      CLOUDY    60  53  77 N15       29.98F
DANVILLE*      CLOUDY    60  53  76 N13       29.94F
RANTOUL*       CLOUDY    62  55  76 N10       29.98F
MATTOON        CLOUDY    59  53  80 N15       29.96F
PARIS*         CLOUDY    61  53  76 N7        29.97S
$$

ILZ079-100>102-242000-
SOUTHWEST ILLINOIS

CITY           SKY/WX    TMP DP  RH WIND       PRES   REMARKS
ALTON          CLOUDY    61  54  77 N14       30.02S
BELLEVILLE     CLOUDY    62  53  73 N10       30.00R
CAHOKIA*       CLOUDY    61  52  72 N10       30.01F
SPARTA*        CLOUDY    58  56  91 N7        30.01S
$$

ILZ064>066-069>071-074>076-080>082-084>086-088>090-092>094-242000-
SOUTH-CENTRAL ILLINOIS

CITY           SKY/WX    TMP DP  RH WIND       PRES   REMARKS
CARBONDALE     PTSUNNY   62  55  77 N9        29.97F
CAIRO*         CLOUDY    61  57  87 NW10      29.97F
EFFINGHAM*     CLOUDY    61  55  78 NW10      29.99S
MARION         CLOUDY    59  55  88 N9        29.98
MT. VERNON     CLOUDY    61  53  75 VRB6      29.98S
CENTRALIA*     CLOUDY    61  55  79 N13       29.98S
SALEM*         CLOUDY    63  53  71 N12       29.98F
METROPOLIS*    CLOUDY    62  57  83 NW10      29.96F
$$

ILZ067-068-072-073-078-083-087-091-242000-
SOUTHEAST ILLINOIS

CITY           SKY/WX    TMP DP  RH WIND       PRES   REMARKS
LAWRENCEVILLE  CLOUDY    59  54  83 MISG      29.96S
FLORA*         CLOUDY    62  54  75 N12       29.97F
FAIRFIELD*     CLOUDY    61  54  76 N8        29.95F
HARRISBURG*    CLOUDY    60  55  83 N9        29.97S
ROBINSON*      CLOUDY    58  53  85 N6        29.96S
CARMI*         CLOUDY    58  55  89 N10       29.96R FOG
$$

ABBREVIATIONS USED IN REMARKS
   TC - TEMPERATURE IN CELSIUS
  WCI - WIND CHILL INDEX
   HX - HEAT INDEX
  VSB - VISIBILITY
$$




USA.gov is the U.S. government's official web portal to all federal, state and local government web resources and services.